Time,TemperatureF,DewpointF,PressureIn,WindDirection,WindDirectionDegrees,WindSpeedMPH,WindSpeedGustMPH,Humidity,HourlyPrecipIn,Conditions,Clouds,dailyrainin,SoftwareType,DateUTC
2013-02-07 00:02:00,27.0,21.0,30.22,SE,131,0.0,0.0,79,0.00,,,0.01,,2013-02-07 05:02:00,
2013-02-07 00:12:00,27.0,21.0,30.22,SE,131,0.0,0.0,79,0.00,,,0.01,,2013-02-07 05:12:00,
2013-02-07 00:21:00,27.0,21.0,30.22,SE,131,0.0,0.0,79,0.00,,,0.01,,2013-02-07 05:21:00,
2013-02-07 00:32:00,27.0,22.0,30.21,SE,131,1.0,-999.0,81,-99.99,,,-99.99,,2013-02-07 05:32:00,
2013-02-07 00:43:00,27.0,22.0,30.21,SE,131,1.0,-999.0,81,-99.99,,,-99.99,,2013-02-07 05:43:00,
2013-02-07 00:52:00,28.0,23.0,30.20,SSE,155,1.0,-999.0,81,-99.99,,,-99.99,,2013-02-07 05:52:00,
2013-02-07 01:02:00,28.0,23.0,30.20,SSE,155,1.0,-999.0,81,-99.99,,,-99.99,,2013-02-07 06:02:00,
2013-02-07 01:11:00,28.0,23.0,30.20,SSE,155,1.0,-999.0,81,-99.99,,,-99.99,,2013-02-07 06:11:00,
2013-02-07 01:22:00,28.0,23.0,30.20,South,179,0.0,-999.0,80,-99.99,,,-99.99,,2013-02-07 06:22:00,
2013-02-07 01:32:00,28.0,23.0,30.20,South,179,0.0,-999.0,80,-99.99,,,-99.99,,2013-02-07 06:32:00,
2013-02-07 01:43:00,28.0,23.0,30.20,South,179,0.0,-999.0,80,-99.99,,,-99.99,,2013-02-07 06:43:00,
2013-02-07 01:52:00,28.0,23.0,30.19,South,179,0.0,-999.0,80,-99.99,,,-99.99,,2013-02-07 06:52:00,
2013-02-07 02:01:00,29.0,23.0,30.19,SSE,160,1.0,-999.0,79,-99.99,,,-99.99,,2013-02-07 07:01:00,
2013-02-07 02:11:00,29.0,23.0,30.19,SSE,160,0.0,-999.0,79,-99.99,,,-99.99,,2013-02-07 07:11:00,
2013-02-07 02:22:00,29.0,23.0,30.19,SSE,160,0.0,-999.0,79,-99.99,,,-99.99,,2013-02-07 07:22:00,
2013-02-07 02:32:00,29.0,23.0,30.19,SSE,160,0.0,-999.0,79,-99.99,,,-99.99,,2013-02-07 07:32:00,
2013-02-07 02:42:00,29.0,23.0,30.19,SSE,160,0.0,-999.0,79,-99.99,,,-99.99,,2013-02-07 07:42:00,
2013-02-07 02:52:00,29.0,23.0,30.19,SSE,160,0.0,-999.0,78,-99.99,,,-99.99,,2013-02-07 07:52:00,
2013-02-07 03:02:00,29.0,23.0,30.18,SSE,160,0.0,-999.0,78,-99.99,,,-99.99,,2013-02-07 08:02:00,
2013-02-07 03:11:00,29.0,23.0,30.18,SSE,160,0.0,-999.0,78,-99.99,,,-99.99,,2013-02-07 08:11:00,
2013-02-07 03:22:00,29.0,23.0,30.18,East,90,0.0,-999.0,78,-99.99,,,-99.99,,2013-02-07 08:22:00,
2013-02-07 03:32:00,29.0,23.0,30.18,ESE,104,0.0,-999.0,78,-99.99,,,-99.99,,2013-02-07 08:32:00,
2013-02-07 03:42:00,29.0,23.0,30.18,ESE,104,0.0,-999.0,78,-99.99,,,-99.99,,2013-02-07 08:42:00,
2013-02-07 03:52:00,29.0,23.0,30.17,ESE,104,0.0,-999.0,78,-99.99,,,-99.99,,2013-02-07 08:52:00,
2013-02-07 04:02:00,29.0,23.0,30.17,ESE,114,1.0,-999.0,78,-99.99,,,-99.99,,2013-02-07 09:02:00,
2013-02-07 04:11:00,29.0,23.0,30.17,ESE,114,1.0,-999.0,78,-99.99,,,-99.99,,2013-02-07 09:11:00,
2013-02-07 04:21:00,29.0,23.0,30.16,ESE,102,2.0,6.0,78,0.00,,,0.00,,2013-02-07 09:21:00,
2013-02-07 04:32:00,29.0,23.0,30.16,ESE,113,1.0,8.0,78,0.00,,,0.00,,2013-02-07 09:32:00,
2013-02-07 04:42:00,29.0,23.0,30.16,ESE,113,1.0,8.0,78,0.00,,,0.00,,2013-02-07 09:42:00,
2013-02-07 04:52:00,29.0,23.0,30.16,ESE,113,1.0,6.0,79,0.00,,,0.00,,2013-02-07 09:52:00,
2013-02-07 05:02:00,29.0,23.0,30.15,ESE,102,2.0,6.0,79,0.00,,,0.00,,2013-02-07 10:02:00,
2013-02-07 05:11:00,29.0,23.0,30.15,ESE,102,2.0,6.0,79,0.00,,,0.00,,2013-02-07 10:11:00,
2013-02-07 05:22:00,30.0,24.0,30.16,ESE,109,0.0,3.0,79,0.00,,,0.00,,2013-02-07 10:22:00,
2013-02-07 05:32:00,30.0,24.0,30.17,ESE,109,0.0,2.0,79,0.00,,,0.00,,2013-02-07 10:32:00,
2013-02-07 05:42:00,30.0,24.0,30.17,ESE,109,0.0,2.0,79,0.00,,,0.00,,2013-02-07 10:42:00,
2013-02-07 05:52:00,30.0,24.0,30.17,ESE,109,1.0,4.0,79,0.00,,,0.00,,2013-02-07 10:52:00,
2013-02-07 06:01:00,30.0,24.0,30.16,ESE,109,0.0,2.0,79,0.00,,,0.00,,2013-02-07 11:01:00,
2013-02-07 06:11:00,30.0,24.0,30.16,ESE,109,0.0,2.0,79,0.00,,,0.00,,2013-02-07 11:11:00,
2013-02-07 06:23:00,30.0,24.0,30.16,ESE,110,1.0,3.0,79,0.00,,,0.00,,2013-02-07 11:23:00,
2013-02-07 06:32:00,30.0,24.0,30.16,SSE,147,0.0,3.0,79,0.00,,,0.00,,2013-02-07 11:32:00,
2013-02-07 06:44:00,30.0,24.0,30.16,SSE,147,0.0,3.0,79,0.00,,,0.00,,2013-02-07 11:44:00,
2013-02-07 06:53:00,30.0,24.0,30.16,ESE,112,2.0,3.0,79,0.00,,,0.00,,2013-02-07 11:53:00,
2013-02-07 07:02:00,30.0,24.0,30.16,ESE,112,2.0,3.0,79,0.00,,,0.00,,2013-02-07 12:02:00,
2013-02-07 07:11:00,30.0,24.0,30.16,ESE,112,2.0,3.0,79,0.00,,,0.00,,2013-02-07 12:11:00,
2013-02-07 07:22:00,30.0,25.0,30.15,SE,127,1.0,6.0,80,0.00,,,0.00,,2013-02-07 12:22:00,
2013-02-07 07:33:00,31.0,26.0,30.14,ESE,120,3.0,7.0,80,0.00,,,0.00,,2013-02-07 12:33:00,
2013-02-07 07:42:00,31.0,26.0,30.14,ESE,120,3.0,7.0,80,0.00,,,0.00,,2013-02-07 12:42:00,
2013-02-07 07:52:00,31.0,26.0,30.14,ESE,107,3.0,8.0,80,0.00,,,0.00,,2013-02-07 12:52:00,
2013-02-07 08:03:00,31.0,26.0,30.14,ESE,123,1.0,6.0,80,0.00,,,0.00,,2013-02-07 13:03:00,
2013-02-07 08:12:00,31.0,26.0,30.14,ESE,123,1.0,6.0,80,0.00,,,0.00,,2013-02-07 13:12:00,
2013-02-07 08:22:00,31.0,26.0,30.14,ESE,120,3.0,6.0,80,0.00,,,0.00,,2013-02-07 13:22:00,
2013-02-07 08:32:00,31.0,26.0,30.14,ESE,113,0.0,5.0,80,0.00,,,0.00,,2013-02-07 13:32:00,
2013-02-07 08:42:00,31.0,26.0,30.14,ESE,113,0.0,5.0,80,0.00,,,0.00,,2013-02-07 13:42:00,
2013-02-07 08:52:00,30.0,25.0,30.14,ESE,113,0.0,3.0,80,0.00,,,0.00,,2013-02-07 13:52:00,
2013-02-07 09:01:00,31.0,26.0,30.14,ESE,113,0.0,3.0,80,0.00,,,0.00,,2013-02-07 14:01:00,
2013-02-07 09:11:00,31.0,26.0,30.14,ESE,113,0.0,3.0,80,0.00,,,0.00,,2013-02-07 14:11:00,
2013-02-07 09:22:00,31.0,26.0,30.13,ESE,113,0.0,3.0,80,0.00,,,0.00,,2013-02-07 14:22:00,
2013-02-07 09:32:00,32.0,26.0,30.13,ENE,76,1.0,5.0,79,0.00,,,0.00,,2013-02-07 14:32:00,
2013-02-07 09:42:00,32.0,26.0,30.13,ENE,76,1.0,5.0,79,0.00,,,0.00,,2013-02-07 14:42:00,
2013-02-07 09:52:00,33.0,27.0,30.12,SE,140,5.0,6.0,78,0.00,,,0.00,,2013-02-07 14:52:00,
2013-02-07 10:02:00,34.0,27.0,30.11,SE,141,6.0,10.0,75,0.00,,,0.00,,2013-02-07 15:02:00,
2013-02-07 10:11:00,34.0,27.0,30.11,SE,141,6.0,10.0,75,0.00,,,0.00,,2013-02-07 15:11:00,
2013-02-07 10:22:00,35.0,28.0,30.11,East,100,2.0,7.0,74,0.00,,,0.00,,2013-02-07 15:22:00,
2013-02-07 10:32:00,36.0,28.0,30.12,SE,128,4.0,10.0,71,0.00,,,0.00,,2013-02-07 15:32:00,
2013-02-07 10:42:00,36.0,28.0,30.12,SE,128,4.0,10.0,71,0.00,,,0.00,,2013-02-07 15:42:00,
2013-02-07 10:52:00,38.0,29.0,30.11,ESE,104,2.0,6.0,69,0.00,,,0.00,,2013-02-07 15:52:00,
2013-02-07 11:01:00,39.0,29.0,30.09,SE,128,2.0,8.0,67,0.00,,,0.00,,2013-02-07 16:01:00,
2013-02-07 11:11:00,39.0,29.0,30.09,SE,128,2.0,8.0,67,0.00,,,0.00,,2013-02-07 16:11:00,
2013-02-07 11:22:00,40.0,29.0,30.09,ESE,109,2.0,8.0,65,0.00,,,0.00,,2013-02-07 16:22:00,
2013-02-07 11:32:00,42.0,31.0,30.09,ESE,123,3.0,8.0,64,0.00,,,0.00,,2013-02-07 16:32:00,
2013-02-07 11:42:00,42.0,31.0,30.09,ESE,123,3.0,8.0,64,0.00,,,0.00,,2013-02-07 16:42:00,
2013-02-07 11:52:00,43.0,30.0,30.08,SE,138,3.0,6.0,61,0.00,,,0.00,,2013-02-07 16:52:00,
2013-02-07 12:01:00,45.0,32.0,30.09,South,179,2.0,8.0,60,0.00,,,0.00,,2013-02-07 17:01:00,
2013-02-07 12:11:00,45.0,32.0,30.09,South,179,2.0,8.0,60,0.00,,,0.00,,2013-02-07 17:11:00,
2013-02-07 12:21:00,45.0,31.0,30.09,East,97,0.0,9.0,58,0.00,,,0.00,,2013-02-07 17:21:00,
2013-02-07 12:32:00,47.0,32.0,30.08,ESE,119,1.0,6.0,56,0.00,,,0.00,,2013-02-07 17:32:00,
2013-02-07 12:43:00,47.0,32.0,30.08,ESE,119,1.0,6.0,56,0.00,,,0.00,,2013-02-07 17:43:00,
2013-02-07 12:52:00,48.0,33.0,30.06,SW,222,4.0,10.0,55,0.00,,,0.00,,2013-02-07 17:52:00,
2013-02-07 13:02:00,48.0,32.0,30.06,SSW,195,3.0,8.0,54,0.00,,,0.00,,2013-02-07 18:02:00,
2013-02-07 13:11:00,48.0,32.0,30.06,SSW,195,3.0,8.0,54,0.00,,,0.00,,2013-02-07 18:11:00,
2013-02-07 13:23:00,48.0,32.0,30.06,SSW,195,3.0,8.0,54,0.00,,,0.00,,2013-02-07 18:23:00,
2013-02-07 13:32:00,48.0,32.0,30.06,SSW,195,3.0,8.0,54,0.00,,,0.00,,2013-02-07 18:32:00,
2013-02-07 13:42:00,48.0,32.0,30.06,SSW,195,3.0,8.0,54,0.00,,,0.00,,2013-02-07 18:42:00,
2013-02-07 22:23:00,43.0,35.0,29.85,SSE,160,1.0,6.0,73,0.00,,,0.00,,2013-02-08 03:23:00,
2013-02-07 22:32:00,44.0,35.0,29.82,South,174,4.0,7.0,70,0.00,,,0.00,,2013-02-08 03:32:00,
2013-02-07 22:42:00,44.0,35.0,29.82,South,174,4.0,7.0,70,0.00,,,0.00,,2013-02-08 03:42:00,
2013-02-07 22:52:00,45.0,35.0,29.82,South,186,3.0,8.0,67,0.00,,,0.00,,2013-02-08 03:52:00,
2013-02-07 23:02:00,46.0,35.0,29.81,SSW,192,4.0,8.0,66,0.00,,,0.00,,2013-02-08 04:02:00,
2013-02-07 23:11:00,46.0,35.0,29.81,SSW,192,4.0,8.0,66,0.00,,,0.00,,2013-02-08 04:11:00,
2013-02-07 23:21:00,46.0,35.0,29.81,SSW,195,4.0,7.0,66,0.00,,,0.00,,2013-02-08 04:21:00,
2013-02-07 23:32:00,46.0,35.0,29.81,SW,223,5.0,8.0,66,0.00,,,0.00,,2013-02-08 04:32:00,
2013-02-07 23:42:00,46.0,35.0,29.81,SW,223,5.0,8.0,66,0.00,,,0.00,,2013-02-08 04:42:00,
2013-02-07 23:52:00,46.0,35.0,29.80,SSW,193,3.0,8.0,65,0.00,,,0.00,,2013-02-08 04:52:00,